Total_Precipitation_Accumulation
1.11 1.18 1.24 1.32 1.38 1.44 1.46 1.46 1.45 1.42 1.45 1.48 1.54 1.58 1.59 1.65 1.82 1.93 1.81 2.02 2.13 2.17 1.97 1.88 1.82 1.82 1.82 1.68 1.69 1.79 1.86 2.08 2.01 1.60 1.53 1.67 1.77 1.68 1.73 1.69 1.64 1.65 1.47
1.08 1.23 1.29 1.42 1.46 1.41 1.41 1.60 1.63 1.60 1.57 1.57 1.63 1.72 1.71 1.73 1.85 1.81 1.68 1.76 1.95 2.13 2.31 2.37 2.14 2.06 2.02 1.87 1.84 1.81 1.85 2.02 2.04 1.90 1.79 1.84 1.87 1.81 1.78 1.62 1.40 1.33 1.35
1.01 1.15 1.32 1.40 1.47 1.55 1.68 1.84 1.93 1.86 1.81 1.83 1.87 1.83 1.85 1.89 1.85 1.75 1.75 1.80 1.90 1.98 2.16 2.34 2.34 2.42 2.19 2.13 2.04 1.96 1.91 1.88 2.03 1.94 1.80 1.99 2.00 1.97 1.87 1.54 1.43 1.44 1.29
1.16 1.31 1.42 1.61 1.74 1.81 1.82 1.92 1.95 1.95 1.98 1.98 2.01 1.95 1.93 1.97 1.94 1.89 1.87 1.87 1.93 1.93 1.95 2.01 2.14 2.39 2.37 2.36 2.21 2.18 2.18 2.15 2.22 2.14 2.03 2.13 2.30 2.33 2.17 1.79 1.65 1.57 1.44
1.51 1.54 1.57 1.70 1.83 1.98 2.14 2.18 2.17 2.16 2.10 2.20 2.18 2.09 2.06 2.07 1.93 2.03 2.19 2.17 2.23 2.07 1.97 1.91 1.90 2.13 2.22 2.22 2.00 2.06 2.22 2.27 2.30 2.27 2.24 2.30 2.35 2.47 2.18 1.93 1.76 1.72 1.64
2.02 2.12 2.20 2.28 2.37 2.44 2.51 2.52 2.55 2.51 2.44 2.34 2.23 2.23 2.21 2.02 2.14 2.20 2.11 2.15 2.31 2.31 2.19 2.11 2.00 1.96 1.95 1.98 2.02 2.05 2.12 2.11 2.15 2.18 2.15 2.19 2.25 2.36 2.47 2.29 2.04 1.87 1.70
2.20 2.30 2.41 2.47 2.59 2.68 2.73 2.73 2.61 2.54 2.47 2.34 2.31 2.32 2.25 2.29 2.25 2.02 1.88 1.90 1.96 2.05 2.12 2.11 1.90 1.77 1.91 1.85 2.01 2.03 1.90 1.83 1.81 1.90 1.92 1.96 2.34 2.60 2.84 2.55 2.31 2.09 1.84
2.36 2.42 2.45 2.47 2.53 2.68 2.82 2.73 2.56 2.49 2.43 2.37 2.33 2.21 2.14 2.09 2.10 1.87 1.84 1.77 1.73 1.70 1.81 1.91 1.88 1.79 1.80 1.87 1.81 1.62 1.49 1.49 1.51 1.43 1.48 1.70 2.07 2.56 2.81 2.81 2.74 2.49 2.20
2.10 2.24 2.23 2.34 2.52 2.60 2.61 2.59 2.58 2.52 2.35 2.23 2.12 2.06 2.01 2.05 2.19 1.97 1.87 1.74 1.77 1.65 1.63 1.62 1.62 1.53 1.63 1.66 1.57 1.41 1.30 1.27 1.30 1.31 1.30 1.46 1.72 2.05 2.42 2.58 2.50 2.29 1.95
2.07 2.25 2.36 2.45 2.58 2.61 2.63 2.70 2.68 2.59 2.54 2.50 2.35 2.25 2.17 2.13 2.26 2.00 1.84 1.70 1.74 1.71 1.69 1.70 1.74 1.55 1.46 1.36 1.29 1.30 1.16 1.08 1.17 1.16 1.14 1.19 1.31 1.57 1.97 2.06 2.06 2.07 1.86
2.07 2.15 2.26 2.37 2.51 2.69 2.84 2.77 2.72 2.66 2.56 2.39 2.22 2.11 2.06 2.04 2.03 1.82 1.66 1.50 1.50 1.52 1.44 1.39 1.47 1.50 1.29 1.13 1.10 1.09 1.03 1.03 1.09 1.04 0.99 0.99 1.11 1.26 1.44 1.73 1.86 1.83 1.73
2.14 2.19 2.23 2.35 2.37 2.44 2.52 2.50 2.48 2.48 2.45 2.39 2.34 2.28 2.21 2.08 1.85 1.63 1.46 1.34 1.34 1.33 1.43 1.45 1.53 1.57 1.30 1.13 0.98 0.89 0.91 0.87 0.88 0.95 0.92 0.89 0.96 1.06 1.28 1.55 1.82 1.86 1.74
2.11 2.20 2.30 2.34 2.36 2.44 2.55 2.56 2.49 2.42 2.36 2.27 2.18 2.01 1.99 2.02 1.94 1.69 1.43 1.31 1.29 1.24 1.45 1.72 1.74 1.69 1.46 1.19 1.07 1.05 0.96 0.84 0.87 0.91 0.90 0.87 0.90 1.03 1.29 1.58 1.81 1.99 1.93
2.07 2.11 2.23 2.34 2.43 2.53 2.54 2.45 2.31 2.16 2.08 2.02 1.91 1.82 1.81 1.85 1.76 1.69 1.54 1.41 1.39 1.35 1.43 1.66 1.79 1.80 1.68 1.49 1.39 1.29 1.07 0.98 1.03 1.03 1.05 1.09 1.17 1.29 1.45 1.57 1.75 1.89 1.94
2.06 2.11 2.09 2.10 2.16 2.24 2.28 2.25 2.12 2.00 1.90 1.84 1.73 1.70 1.68 1.67 1.69 1.67 1.49 1.38 1.33 1.36 1.49 1.72 1.86 1.96 1.97 1.90 1.77 1.66 1.52 1.37 1.24 1.19 1.23 1.23 1.27 1.35 1.41 1.55 1.76 1.84 1.77
2.09 1.97 1.87 1.77 1.74 1.76 1.76 1.80 1.91 1.81 1.79 1.65 1.54 1.48 1.45 1.47 1.48 1.41 1.30 1.24 1.27 1.36 1.43 1.58 1.81 2.00 2.06 2.14 2.15 2.04 1.82 1.62 1.48 1.45 1.41 1.37 1.39 1.39 1.43 1.58 1.79 1.89 1.77
1.97 1.81 1.70 1.66 1.66 1.59 1.54 1.53 1.62 1.64 1.58 1.50 1.49 1.39 1.27 1.30 1.24 1.18 1.18 1.16 1.17 1.23 1.30 1.43 1.54 1.65 1.83 2.04 2.13 2.10 1.90 1.76 1.76 1.72 1.63 1.60 1.62 1.63 1.63 1.73 1.90 2.00 1.96
1.80 1.81 1.64 1.56 1.63 1.62 1.57 1.53 1.54 1.57 1.54 1.46 1.45 1.41 1.19 1.06 1.04 1.05 1.06 1.04 0.96 0.98 1.08 1.23 1.39 1.53 1.69 1.93 2.06 2.09 2.04 1.95 1.95 1.97 1.93 1.88 1.87 1.83 1.76 1.72 1.83 1.92 1.94
1.65 1.68 1.64 1.60 1.58 1.59 1.58 1.51 1.45 1.43 1.44 1.37 1.29 1.35 1.29 1.12 1.05 1.07 1.08 1.01 0.95 0.94 1.03 1.08 1.15 1.31 1.48 1.72 1.95 2.10 2.10 2.00 1.92 1.98 1.96 1.89 1.89 1.91 1.80 1.70 1.75 1.91 1.98
1.55 1.69 1.62 1.60 1.59 1.55 1.57 1.57 1.51 1.48 1.44 1.38 1.30 1.32 1.32 1.20 1.11 1.19 1.26 1.26 1.18 1.13 1.15 1.16 1.24 1.36 1.50 1.72 1.92 2.01 2.04 2.01 1.96 1.96 1.94 1.88 1.85 1.84 1.71 1.64 1.66 1.73 1.76
1.43 1.46 1.53 1.40 1.41 1.48 1.47 1.50 1.51 1.51 1.45 1.37 1.28 1.28 1.22 1.13 1.24 1.33 1.42 1.44 1.36 1.28 1.24 1.22 1.27 1.37 1.54 1.74 1.88 1.97 1.99 2.00 2.01 1.98 1.94 1.87 1.84 1.84 1.79 1.74 1.70 1.73 1.74
1.42 1.30 1.29 1.32 1.46 1.50 1.53 1.55 1.57 1.54 1.50 1.47 1.45 1.43 1.37 1.21 1.31 1.40 1.46 1.51 1.51 1.47 1.42 1.38 1.36 1.42 1.51 1.65 1.80 1.92 1.92 1.90 1.90 1.92 1.90 1.86 1.86 1.88 1.91 1.90 1.85 1.84 1.86
1.43 1.40 1.37 1.36 1.48 1.59 1.60 1.63 1.64 1.60 1.57 1.55 1.52 1.47 1.44 1.40 1.44 1.52 1.57 1.60 1.59 1.55 1.50 1.47 1.44 1.47 1.50 1.53 1.63 1.74 1.79 1.78 1.73 1.74 1.80 1.78 1.75 1.75 1.80 1.83 1.83 1.84 1.81
1.28 1.36 1.38 1.37 1.42 1.46 1.48 1.49 1.48 1.44 1.42 1.43 1.48 1.54 1.55 1.56 1.59 1.64 1.61 1.55 1.49 1.44 1.44 1.42 1.41 1.41 1.44 1.49 1.51 1.48 1.52 1.57 1.52 1.51 1.56 1.62 1.65 1.65 1.69 1.70 1.76 1.82 1.88
1.16 1.31 1.39 1.36 1.33 1.36 1.34 1.28 1.27 1.31 1.38 1.45 1.48 1.52 1.58 1.60 1.61 1.56 1.49 1.40 1.31 1.30 1.33 1.32 1.31 1.26 1.24 1.26 1.26 1.25 1.39 1.43 1.40 1.37 1.36 1.41 1.45 1.51 1.57 1.59 1.65 1.77 1.92
1.13 1.24 1.29 1.29 1.29 1.32 1.35 1.31 1.25 1.28 1.38 1.42 1.45 1.44 1.44 1.46 1.48 1.44 1.37 1.31 1.27 1.23 1.24 1.25 1.21 1.12 1.10 1.08 1.08 1.11 1.10 1.05 1.11 1.22 1.23 1.25 1.33 1.43 1.48 1.51 1.54 1.67 1.79